Bolingbrook's Clow International Airport

Jump to: basic info | weather | frequencies | runways | comments

Related pages: nearby airports | nearby navaids | notams | map

Basic information (top)

Codes: K1C5 1C5
Location: lon 41.695999, lat -88.129204, elev 670 ft / 204 m msl
Status: small_airport
Scheduled airline service: no
Links: Wikipedia Mobile

Weather (top)

Current conditions for Lewis University Airport 6nm (10km) SSE (rec'd 2014/04/23 08:15Z):

KLOT 230815Z AUTO 04007KT 10SM CLR 01/M02 A3011

Airport forecast for Dupage Airport 14nm (26km) NNW (rec'd 2014/04/23 06:27Z):

TAF KDPA 230525Z 2306/2406 02004KT P6SM SKC 
     FM231600 06007KT P6SM SCT200 
     FM232300 09007KT P6SM BKN090 OVC250 
     FM240400 10006KT P6SM VCSH BKN060 OVC090

Frequencies (top)

Verify before use: may be inaccurate or out of date.

A/D: 119.35 MHz (CHICAGO APP/DEP)
CTAF: 122.9 MHz (CTAF)

Runways (top)

18/36: 3,362 x 50 ft (1,025 x 15 m) — other (ASPH-G) — lighted — threshold 18 displaced 190 ft (58 m) — threshold 36 displaced 130 ft (40 m)

Latest comments (top)

1C5 - Clow International - First Starts: I started primary training here a long ... [read]

More... (top)

See also NOTAMs and nearby airports and navaids, or visit the Bolingbrook's Clow International Airport page at the main OurAirports website..